Terug naar catalogus

HJ-2B

ActiefWetenschapSSO
NORAD 46479·PAYLOAD·🇨🇳 China

Gelanceerd Sep 27, 2020 vanaf Taiyuan Satellite Launch Center

Loading…

Volgende Passages (komende 24 uur)

TLE

VersSource: Space-Track

Epoch: Sep 14, 2026, 15:43 UTC

1 46479U 20067B   26257.65520685  .00000691  00000-0  10625-3 0  9997
2 46479  97.8839 334.9751 0001036  61.0956 299.0358 14.76562259321464

Volg HJ-2B in realtime met AllMySat

Download on the App Store